Regional Weather Roundup
Issued by NWS Portland, ME

Current Version | Previous Version | Text Only | Print | Product List | Glossary Off
Versions: 1 2 3 4 5 6 7 8 9 10 11 12 13 14 15 16 17 18 19 20 21 22 23 24 25 26 27 28 29 30 31 32 33 34 35 36 37 38 39 40 41 42 43 44 45 46 47 48 49 50
000 ASUS41 KGYX 210905 RWRGYX WEATHER ROUNDUP FOR MAINE AND NEW HAMPSHIRE NATIONAL WEATHER SERVICE GRAY ME 500 AM EDT SUN OCT 21 2018 MEZ002-005-006-010-012-015-018-020-021-024-026-027-029-211000- MAINE CITY SKY/WX TMP DP RH WIND PRES REMARKS PORTLAND CLOUDY 44 32 62 CALM 29.60R SANFORD CLOUDY 43 35 73 NW5 29.60R BAR HARBOR FAIR 37 34 89 N5 29.59R WISCASSET MOCLDY 36 35 96 CALM 29.61R ROCKLAND CLOUDY 43 32 65 CALM 29.59R FRYEBURG FAIR 31 29 92 CALM 29.60R LEWISTONAUBURN CLOUDY 39 32 76 N3 29.60R AUGUSTA MOCLDY 41 28 60 NW8 29.60R WATERVILLE FAIR 36 29 75 CALM 29.58R BANGOR FAIR 30 28 92 CALM 29.59R GREENVILLE N/A 34 28 79 NW9G23 29.55R MILLINOCKET FAIR 36 28 73 NW13G21 29.59R HOULTON FAIR 27 26 96 CALM 29.56R PRESQUE ISLE FAIR 34 28 79 W8 29.56R FRENCHVILLE FAIR 33 26 75 SW10 29.50R CARIBOU FAIR 31 26 82 W7 29.53R $$ NHZ002-005-008-009-011-012-014-211000- NEW HAMPSHIRE CITY SKY/WX TMP DP RH WIND PRES REMARKS PORTSMOUTH CLOUDY 45 37 73 N6 29.59R ROCHESTER CLOUDY 43 37 79 NW3 29.60R NASHUA CLOUDY 47 33 58 NW10 29.62R MANCHESTER CLOUDY 47 31 53 N12G22 29.60R CONCORD CLOUDY 44 32 62 NW7 29.62R LACONIA MOCLDY 45 29 53 W6 29.62R PLYMOUTH FAIR 42 30 62 NW7 29.63R BERLIN CLOUDY 30 28 92 CALM 29.64R WHITEFIELD FAIR 29 27 92 SE3 29.66R JAFFREY CLOUDY 45 33 63 VRB7 29.62R KEENE CLOUDY 45 33 63 N12 29.64R LEBANON FAIR 43 28 55 N14G20 29.66R MT WASHINGTON FOG 18 18 100 NW47G56 N/A VSB 0 WCI -6 $$ VTZ005-007-008-211000- VERMONT CITY SKY/WX TMP DP RH WIND PRES REMARKS ST JOHNSBURY N/A 37 31 78 MISG 29.67R MONTPELIER CLOUDY 36 28 73 NW9G18 29.73R BURLINGTON CLOUDY 39 27 62 NW8 29.76R $$ MAZ007-012-024-CTZ003-RIZ002-NYZ038-NYZ072-211000- SOUTHERN NEW ENGLAND AND NY CITY SKY/WX TMP DP RH WIND PRES REMARKS BOSTON MOCLDY 50 36 58 NW13 29.59R WORCESTER CLOUDY 45 37 73 NW13 29.58R NANTUCKET FAIR 46 44 93 N5 29.54S PROVIDENCE LGT RAIN 48 44 86 N7 29.59R HARTFORD CLOUDY 46 39 76 N6 29.63R ALBANY CLOUDY 45 30 55 NW10 29.71R NEW YORK CITY CLOUDY 50 42 74 NW15 29.66R $$ ANZ081-ANZ082-ANZ150-NHZ014-MEZ023>029-211000- COASTAL MARINE OBSERVATIONS STATION/POSITION TIME TEMP WIND PRES WAVE AIR SEA DIR/SP/G HT/PER (UTC) (F) (DEG/KT/KT) (MB) (FT/S) MOUNT DESERT ROC 0900 49 350/ 18/ 19 1001.2R MATINICUS ROCK 0800 51 360/ 20/ 23 1000.5R ISLE OF SHOALS 0800 50 10/ 20/ 22 1000.3F JEFFREYS LEDGE 0806 55 N/A 3/ 8 $$ .............KEY.............. WCI - WIND CHILL TC - TEMPERATURE IN CELSIUS VSB - VISIBILITY IN MILES HX - HEAT INDEX FAIR- INDICATES FEW OR NO CLOUDS BELOW 12,000 FT, WITH NO SIGNIFICANT WEATHER AND/OR OBSTRUCTIONS TO VISIBILITY.

USA.gov is the U.S. government's official web portal to all federal, state and local government web resources and services.